Regional Weather Roundup
Issued by NWS Charleston, SC

Current Version | Previous Version | Text Only | Print | Product List | Glossary Off
Versions: 1 2 3 4 5 6 7 8 9 10 11 12 13 14 15 16 17 18 19 20 21 22 23 24 25 26 27 28 29 30 31 32 33 34 35 36 37 38 39 40 41 42 43 44 45 46 47 48 49 50
000 ASUS42 KCHS 290612 RWRCHS REGIONAL WEATHER ROUNDUP NATIONAL WEATHER SERVICE CHARLESTON SC 200 AM EDT WED JUL 29 2015 NOTE: "FAIR" INDICATES FEW OR NO CLOUDS BELOW 12,000 FEET WITH NO SIGNIFICANT WEATHER AND/OR OBSTRUCTIONS TO VISIBILITY. NOT ALL STATIONS ARE QUALITY CONTROLLED BY THE NATIONAL WEATHER SERVICE. USE DATA WITH CAUTION...ESPECIALLY DEWPOINT OBSERVATIONS. SCZ027-030-031-034>040-042>050-290700- ...SOUTHEAST SOUTH CAROLINA... CITY SKY/WX TMP DP RH WIND PRES REMARKS N CHARLESTON PTCLDY 77 73 87 E5 29.96F 6HR MIN TEMP: 77; 6HR MAX TEMP: 83; WATERFRONT PRK N/A 81 76 85 E5 29.94S MOUNT PLEASANT LGT RAIN 75 73 94 CALM 29.96F JOHNS ISLAND FAIR 77 75 94 CALM 29.96F PINOPOLIS NOT AVBL MONCKS CORNER FAIR 75 72 88 CALM 29.97F SUMMERVILLE FAIR 73 73 100 CALM 29.98F BEAUFORT MCAS CLEAR 77 74 90 NE5 29.96F 6HR MIN TEMP: 77; 6HR MAX TEMP: 84; BEAUFORT ARPT FAIR 77 77 100 CALM 29.96S HILTON HEAD IS CLOUDY 81 75 83 CALM 29.97S WALTERBORO PTCLDY 77 73 88 NW3 29.98F ALLENDALE FAIR 75 73 94 CALM 29.98R ...SOUTHERN MIDLANDS AND PEE DEE... CITY SKY/WX TMP DP RH WIND PRES REMARKS GEORGETOWN NOT AVBL KINGSTREE NOT AVBL ORANGEBURG MOCLDY 78 72 81 W3 29.98F 6HR MIN TEMP: 77; 6HR MAX TEMP: 87; BARNWELL FAIR 77 73 88 CALM 29.99S AIKEN FAIR 77 70 78 SE5 30.03S MANNING FAIR 72 70 94 CALM 29.98S COLUMBIA PTCLDY 79 74 84 CALM 29.97F 6HR MIN TEMP: 79; 6HR MAX TEMP: 86; 6HR PCP: 0.02; SUMTER NOT AVBL FLORENCE CLEAR 76 71 85 W3 29.99S 6HR MIN TEMP: 76; 6HR MAX TEMP: 89; MYRTLE BEACH PTCLDY 81 70 69 E3 30.00S N MYRTLE BEACH PTCLDY 75 72 90 CALM 29.97F 6HR MIN TEMP: 75; 6HR MAX TEMP: 83; $$ GAZ063-065-086>088-099>101-113>116-118-119-134>141-150-290700- ...SOUTHEAST GEORGIA... CITY SKY/WX TMP DP RH WIND PRES REMARKS SAVANNAH ARPT CLEAR 78 75 90 N3 29.97S 6HR MIN TEMP: 78; 6HR MAX TEMP: 84; HUNTER AAF NOT AVBL FORT STEWART NOT AVBL STATESBORO CLEAR 75 75 100 CALM 29.97S SYLVANIA CLEAR 78 77 97 CALM 29.99S CLAXTON FAIR 75 73 94 CALM 29.97S ...CSRA...CENTRAL AND FAR SOUTHEAST GEORGIA... CITY SKY/WX TMP DP RH WIND PRES REMARKS THOMSON PTCLDY 79 79 100 CALM 30.02F AUGUSTA-BUSH CLEAR 79 74 84 SE3 29.97S 6HR MIN TEMP: 78; 6HR MAX TEMP: 88; AUGUSTA-DANIEL CLEAR 82 72 71 S7 29.99S SWAINSBORO FAIR 81 77 89 CALM 29.99F VIDALIA CLEAR 77 73 88 CALM 29.98F EASTMAN FAIR 80 75 85 S5 30.00S HAZLEHURST FAIR 79 73 80 CALM 29.97S ALMA CLEAR 75 72 90 CALM 29.97S 6HR MIN TEMP: 75; 6HR MAX TEMP: 89; WAYCROSS PTCLDY 79 77 95 CALM 29.97R JESUP FAIR 77 75 94 CALM 29.96F BAXLEY FAIR 77 72 83 CALM 29.97S BRUNSWICK PTCLDY 73 73 100 CALM 29.95F SAINT SIMONS PTCLDY 78 75 90 CALM 29.94F 6HR MIN TEMP: 78; 6HR MAX TEMP: 83; $$ SCZ027-028-034-036>038-045-046-048>050-GAZ119-141-290700- ...LAKE AND SUPPLEMENTAL COASTAL OBSERVATIONS... STATION/POSITION TIME TEMP WIND PRES WAVE SWELL AIR SEA DIR/SP/G HT/PER HT/PER/DIR (UTC) (F) (DEG/KT/KT) (MB) (FT/S) (FT/S/D) UPR LAKE MARION NOT AVBL WINYAH BAY NOT AVBL LAKE MURRAY 0500 79 CALM / 6 1014.9R ACE BASIN NERRS NOT AVBL FORT PULASKI 0500 81 86 100/ 4/ 4 1014.9F SAPELO ISLAND 0500 78 20/ 2 1014.0F $$ ANZ835-935-AMZ111-154-330-350-352-354-370-450-454-472-290700- ...C-MAN AND BUOY OBSERVATIONS... STATION/POSITION TIME TEMP WIND PRES WAVE SWELL AIR SEA DIR/SP/G HT/PER HT/PER/DIR (UTC) (F) (DEG/KT/KT) (MB) (FT/S) (FT/S/D) BUOY 41004 0550 83 84 60/ 8/ 10 1013.9F 3/ 6 2/ 6 BUOY 41008 0550 81 82 60/ 8/ 10 1014.0F 3/ 4 2/ 70/ 4 FOLLY BEACH CMAN 0500 81 70/ 10/ 11 1014.8F CAPERS NEARSHORE 0508 82 70/ 10/ 14 1014.9F FRIPP NEARSHORE 0500 83 100/ 6/ 8 1014.5S STATION/POSITION TIME TEMP WIND PRES WAVE SWELL AIR SEA DIR/SP/G HT/PER HT/PER/DIR (UTC) (F) (DEG/KT/KT) (MB) (FT/S) (FT/S/D) 5E ST. MARYS GA 0521 82 N/A 2/ 4 FRYING PAN BUOY 0550 83 84 70/ 8/ 12 1014.9F 3/ 7 3/110/ 7 BUOY 41025 NOT AVBL CAPE LOOKOUT NC 0500 81 90/ 12/ 13 1015.3F BUOY 41002 0550 80 81 230/ 14/ 17 1014.0F 6/ 7 3/230/ 7 BUOY 41010 0520 83 84 220/ 14/ 17 1014.2F ST AUGUSTINE FL 0600 78 81 280/ 4/ 5 1014.5F $$

USA.gov is the U.S. government's official web portal to all federal, state and local government web resources and services.